Theta_e
331 333 339 343 347 349 348 350 355 359 358 356 354 352 351 349 348 347 345 345 344 343 342 341 340 339 339 339 340 340 338 338 337 337 334 327 329 337 339 338 338 338 338 338 340 342 340 340 342 344 344 344 344 343 341 341 343 341 337 338 337 335 335 335 334 333 331 330 330 330 327 326 323 321 320 318 317 316 313 313 313 312 313 313 312
332 334 339 341 347 350 349 349 354 359 357 356 355 353 352 350 349 348 346 346 344 343 342 341 341 339 340 340 340 340 339 338 338 338 335 328 330 338 339 339 339 339 339 339 340 341 341 340 340 341 342 343 343 343 343 342 344 342 338 337 337 335 334 335 334 333 331 331 331 330 327 325 323 321 320 318 317 316 314 314 313 312 312 311 311
330 333 338 340 349 351 350 351 355 357 355 355 355 353 352 351 349 348 347 346 345 344 343 342 342 340 340 340 340 341 339 338 337 338 337 330 331 338 340 339 339 339 339 339 340 341 341 341 340 340 342 343 343 343 343 343 344 342 337 336 337 335 334 334 334 332 332 332 331 330 328 326 324 322 321 319 317 316 315 314 313 312 312 311 310
327 331 336 339 349 351 348 348 351 355 355 353 354 353 352 351 349 348 347 346 345 345 344 344 343 342 341 341 341 340 339 338 337 338 338 333 333 338 339 339 339 339 339 339 339 340 341 341 340 340 341 342 343 342 342 341 341 341 338 335 335 335 334 334 333 334 334 333 331 330 329 328 327 325 323 320 318 317 316 315 313 312 312 311 310
327 329 333 336 346 351 348 346 348 353 355 353 353 353 352 351 350 349 348 347 346 346 345 345 344 342 342 342 341 340 339 339 339 339 338 335 334 337 339 339 339 338 338 338 338 339 340 341 340 340 341 343 343 342 342 341 339 340 339 336 334 335 335 334 333 335 335 332 331 332 330 330 330 326 324 323 319 318 317 315 314 313 312 311 311
327 327 329 333 343 349 348 347 348 352 354 353 354 354 353 352 351 350 349 347 346 346 346 346 344 343 344 343 342 342 341 341 340 339 337 334 336 337 337 338 339 337 338 338 338 339 340 341 341 342 342 342 342 341 341 341 340 339 339 337 337 337 337 336 335 334 334 332 331 332 332 333 331 327 326 325 321 319 318 317 315 314 313 312 311
326 327 328 329 340 347 347 346 346 350 354 354 353 354 354 353 352 351 349 348 347 347 346 346 345 345 345 344 343 343 342 342 341 339 336 334 337 337 336 337 338 336 337 338 338 338 339 340 341 343 343 342 341 341 341 341 341 340 339 338 338 338 338 337 335 334 334 333 332 332 332 333 331 327 328 327 324 322 320 318 316 314 313 312 311
326 328 328 328 337 344 344 342 344 348 353 355 354 354 355 354 352 351 350 349 348 348 347 346 346 346 346 345 344 343 343 343 342 340 336 334 335 335 334 335 337 337 337 338 339 339 339 340 342 343 343 343 342 340 341 342 341 340 339 338 338 338 339 338 336 334 334 333 332 332 333 333 331 329 329 329 328 326 322 320 318 316 314 314 313
324 326 327 328 337 344 343 341 343 346 350 354 355 355 355 354 352 351 350 350 349 349 348 347 347 347 347 346 345 344 343 343 343 339 336 333 331 333 334 336 338 338 338 339 339 339 340 341 343 343 343 342 341 340 340 342 342 341 340 339 339 339 338 338 337 335 334 334 333 333 333 332 330 329 329 329 329 328 324 322 320 317 316 315 314
321 324 325 327 332 341 344 344 344 345 348 353 356 355 354 354 353 352 351 350 350 349 349 348 347 347 347 347 346 345 344 343 343 340 337 335 334 336 337 338 338 338 338 338 339 340 340 341 342 343 343 343 341 340 340 340 340 341 340 339 339 338 337 337 337 336 335 335 333 333 332 331 330 330 328 328 328 328 326 323 322 320 318 317 316
320 321 323 326 327 334 345 346 345 346 349 352 354 354 353 353 353 352 351 350 350 349 349 348 348 348 348 348 347 346 344 343 343 342 341 340 339 339 339 339 338 338 338 338 340 340 340 341 342 342 343 343 341 340 340 339 339 339 338 338 338 336 337 338 337 336 335 334 333 332 332 330 330 330 328 327 326 327 326 325 324 322 320 319 318
321 321 321 325 326 331 340 343 345 347 348 350 352 353 352 352 352 351 350 349 349 349 349 349 348 348 349 349 348 347 345 344 343 343 342 341 340 340 339 339 338 338 338 339 340 341 341 341 343 343 342 342 341 340 339 339 339 338 337 338 338 336 337 337 336 335 334 334 334 333 332 331 330 330 329 327 326 326 325 325 325 323 322 321 320
319 321 321 324 326 331 337 342 346 345 343 345 349 351 352 352 352 351 351 349 349 350 350 349 349 349 349 349 348 348 347 345 344 344 343 342 341 340 340 340 339 338 338 339 340 341 341 342 342 342 342 341 341 340 339 339 338 338 338 339 339 337 337 337 336 335 334 334 334 333 332 331 330 330 329 327 327 326 326 325 325 324 323 322 320
318 319 321 323 325 332 338 341 344 340 339 341 347 352 351 351 351 350 350 350 350 350 350 349 349 349 349 350 349 348 348 346 345 344 344 343 342 342 341 340 339 338 338 338 340 341 342 342 342 342 342 341 340 339 338 339 338 337 338 340 339 338 337 337 337 336 335 335 334 333 332 331 331 330 329 328 327 327 327 326 325 324 323 322 319
318 318 321 324 325 331 337 340 342 343 343 343 348 353 352 351 351 349 349 350 349 350 350 350 350 350 349 350 350 348 348 347 346 345 345 343 342 342 341 340 340 339 338 338 339 340 342 342 342 343 342 341 340 338 338 338 338 338 339 340 340 339 338 337 336 336 335 335 334 334 333 331 331 330 329 328 327 327 327 326 325 325 323 322 320
319 319 321 324 326 329 334 339 340 344 347 346 349 353 352 351 351 350 350 350 351 351 351 351 350 350 350 350 349 349 348 348 347 346 345 344 343 342 342 341 340 339 338 338 338 340 341 342 343 343 341 341 340 339 339 338 338 339 338 338 339 339 338 337 337 336 335 335 334 333 333 332 331 330 330 328 328 327 327 326 325 324 324 323 321
319 320 322 322 324 326 329 334 337 340 343 344 348 352 351 350 351 350 350 350 351 351 351 351 351 350 351 350 349 349 348 348 348 347 346 345 344 342 342 342 340 339 339 339 339 340 341 342 342 342 342 341 339 339 339 338 337 338 337 336 337 336 336 337 337 337 335 334 333 333 333 332 331 330 329 328 328 327 327 326 324 323 323 323 322
319 320 320 320 322 324 327 331 333 336 338 343 348 351 351 351 350 350 350 350 351 351 351 351 350 350 350 349 349 349 349 349 348 348 346 346 345 343 343 342 341 341 341 340 340 340 341 342 341 342 341 340 339 338 338 338 337 337 335 335 336 335 336 337 336 335 334 333 333 333 332 332 331 330 329 328 327 327 326 324 323 323 323 322 321
316 317 318 320 320 323 327 330 329 331 336 341 347 349 350 351 350 350 350 350 349 350 349 349 350 350 349 349 349 349 349 348 348 348 347 346 345 344 344 343 343 342 342 341 341 340 341 342 341 340 340 340 340 339 337 338 337 336 335 335 335 334 335 335 334 333 333 333 333 332 332 331 331 330 329 327 327 327 325 323 324 324 323 322 321
314 314 317 318 320 321 324 326 325 327 334 340 344 346 350 353 351 350 350 350 348 349 349 349 349 349 348 349 349 348 348 348 348 348 347 346 345 345 344 345 344 343 343 342 341 340 340 341 341 340 340 341 340 338 338 337 336 336 336 335 335 334 334 334 333 332 331 331 331 331 331 331 331 329 328 327 326 325 324 324 324 322 320 320 319
314 314 316 318 320 321 322 323 323 324 329 336 342 344 347 351 352 350 351 350 349 350 350 350 349 349 348 348 348 349 348 348 348 348 347 346 345 345 344 345 345 344 343 342 342 341 340 341 341 341 341 341 339 338 337 337 336 336 335 334 335 334 333 333 332 331 330 330 330 330 330 330 329 328 326 325 325 324 324 322 320 318 318 318 318
316 315 316 317 320 321 321 321 323 323 324 330 339 343 345 349 350 348 350 350 350 350 350 350 349 349 349 348 348 349 348 348 348 348 347 346 345 345 345 345 346 345 343 343 343 342 340 341 341 341 341 340 339 338 337 337 336 336 335 334 334 333 332 331 331 330 330 329 328 328 328 328 327 325 325 324 323 322 320 318 316 316 317 316 317
316 316 317 318 319 321 321 320 322 323 322 327 335 340 343 348 350 348 348 349 350 350 349 349 348 348 348 347 348 348 347 347 348 347 347 346 345 345 345 345 346 345 344 343 343 342 341 340 340 340 340 339 338 338 337 337 336 335 334 334 333 333 332 331 330 330 329 328 327 326 327 326 325 325 324 322 320 318 317 316 315 314 315 315 315
319 318 319 320 320 321 320 320 321 322 323 325 330 336 341 345 348 349 349 349 350 351 350 348 348 349 348 347 347 347 347 347 347 347 347 346 345 345 345 345 345 345 344 344 343 342 341 340 340 340 341 340 338 338 337 337 336 334 334 333 333 332 332 331 330 329 328 327 326 326 327 326 325 324 322 320 318 317 316 315 314 313 314 313 314
319 320 321 322 322 322 321 321 322 323 323 323 325 333 339 341 343 346 349 350 350 351 349 348 349 349 348 347 347 346 347 347 347 347 347 346 346 345 345 345 345 345 345 343 343 341 340 340 340 340 341 340 339 338 337 336 335 334 334 333 332 332 331 331 330 328 328 327 326 326 326 325 323 322 321 319 317 317 316 314 313 313 313 313 314
319 319 320 322 322 323 323 323 323 322 322 322 324 329 335 339 342 344 346 349 351 351 349 349 349 349 348 347 346 346 346 347 347 348 347 346 345 345 345 345 344 345 345 343 343 341 340 340 339 340 341 339 338 338 337 336 335 334 333 333 332 331 331 330 329 328 327 326 325 324 324 324 322 320 320 319 317 317 315 313 312 313 311 312 314
321 320 320 321 322 323 324 324 323 322 321 321 323 326 331 338 342 343 343 345 349 350 349 349 349 348 348 346 345 346 346 347 347 348 348 346 345 345 345 344 344 345 344 343 342 342 340 339 339 340 340 339 338 338 337 336 334 333 333 332 332 331 330 329 328 327 326 324 323 323 323 322 321 319 319 318 317 316 314 312 312 312 310 312 314
321 321 321 321 322 324 325 325 325 324 322 321 321 323 328 335 339 341 343 344 349 351 349 348 349 348 348 346 345 345 346 347 347 347 348 347 345 345 345 344 344 344 344 343 342 342 341 339 339 339 339 339 338 338 336 335 334 333 332 332 332 331 329 328 326 325 324 322 321 321 321 321 319 318 318 318 316 315 313 312 312 311 312 314 314
319 321 322 321 322 323 326 328 329 328 325 321 321 321 325 330 333 337 341 343 346 349 348 347 348 349 348 347 346 345 345 345 346 347 347 347 346 345 344 345 344 343 343 343 342 341 341 339 338 338 339 338 338 337 336 334 333 333 332 331 331 330 328 327 325 324 322 321 320 319 319 320 318 317 317 316 315 313 311 311 312 312 313 313 310
320 321 321 321 322 323 325 327 329 331 329 325 322 320 322 326 329 332 336 339 342 347 349 347 348 349 349 348 346 346 345 345 345 346 346 347 346 345 345 344 344 343 343 342 342 341 340 339 338 338 338 339 338 337 336 334 333 332 331 331 330 329 327 326 324 322 321 320 319 318 319 318 317 315 315 314 313 311 309 311 312 313 312 309 308
320 321 322 322 322 322 323 324 326 330 331 328 324 320 320 325 329 332 333 335 339 345 349 349 349 349 349 347 346 345 345 345 345 345 346 347 346 344 344 344 343 343 343 342 341 341 339 339 338 337 338 338 338 337 336 334 333 331 330 330 329 328 326 325 323 322 320 320 319 318 318 317 315 314 313 312 311 309 308 311 312 310 308 307 308
320 320 321 322 323 323 325 326 327 329 330 329 327 323 322 322 326 331 333 333 334 340 347 349 348 348 348 347 346 345 345 345 346 346 346 346 345 344 344 344 344 343 343 342 341 341 339 338 338 338 337 337 338 337 336 334 332 330 329 329 329 327 326 325 323 321 320 319 318 318 318 316 314 313 312 311 309 308 308 310 309 306 305 307 309
321 321 321 322 323 323 325 327 330 332 330 329 329 326 323 322 323 327 331 332 332 337 346 349 347 347 347 346 346 345 345 345 345 344 345 345 344 344 343 344 343 342 342 342 341 341 339 338 338 338 337 337 337 336 335 333 332 329 328 328 328 327 325 324 323 320 320 319 318 317 317 316 314 312 311 310 308 306 307 307 305 304 305 307 308
322 322 322 323 324 324 325 328 332 334 333 332 330 328 326 324 323 326 329 331 331 335 344 348 347 346 346 345 345 344 344 344 344 343 344 344 344 343 343 343 342 341 342 342 341 341 339 338 338 337 337 336 335 334 333 332 331 329 327 327 328 327 325 324 322 320 319 318 317 317 317 316 313 311 310 309 307 305 303 301 301 303 304 305 306
323 323 324 325 326 326 326 328 331 334 336 335 333 332 331 328 325 324 328 332 332 333 341 347 346 345 345 345 345 344 344 344 343 343 343 343 343 342 342 342 341 341 341 341 340 340 339 338 337 337 337 336 334 332 331 331 330 328 326 326 328 327 326 324 322 320 319 318 317 316 316 315 313 310 308 308 307 305 303 301 302 303 303 304 303
324 323 324 325 326 326 326 329 332 334 336 337 336 334 333 331 329 326 328 333 334 335 341 347 346 345 345 345 345 344 343 343 343 343 343 342 342 342 341 341 341 341 341 340 340 339 339 338 337 336 336 336 333 331 331 331 329 328 327 326 327 327 325 323 322 320 318 317 316 315 315 314 313 310 308 307 307 306 305 304 304 305 305 305 303
324 324 324 325 326 327 328 331 333 334 337 339 338 337 334 333 332 329 330 336 338 338 343 346 346 345 345 345 345 344 344 343 342 342 343 342 342 341 341 341 341 341 341 340 339 339 338 337 337 336 336 334 332 330 331 330 329 328 327 325 325 326 325 323 321 319 317 316 315 315 314 314 313 311 308 306 307 307 306 306 306 306 306 307 306
324 324 324 325 327 330 331 332 333 334 337 339 339 337 335 333 333 332 332 336 340 341 343 346 346 345 345 345 344 343 343 343 342 342 342 342 341 340 340 340 341 341 340 339 338 338 337 337 336 335 335 334 331 330 330 330 329 328 327 324 323 325 324 323 321 319 317 316 315 314 313 313 314 313 309 306 307 307 307 307 307 308 308 307 308
325 324 324 327 330 330 331 331 332 333 337 340 339 337 335 334 333 333 334 338 341 342 343 345 346 345 345 344 344 343 342 342 341 342 342 341 340 340 340 340 340 340 339 338 338 337 337 337 336 335 334 333 332 329 329 330 329 328 327 324 323 324 324 323 321 318 316 315 314 314 312 312 313 313 309 306 306 306 308 309 309 309 309 308 308
325 325 327 329 330 330 331 331 332 334 338 340 339 337 335 334 334 334 336 339 341 341 341 344 345 344 343 344 343 342 342 342 341 342 342 340 340 340 340 340 340 340 339 338 337 337 337 336 335 334 333 333 332 330 329 330 330 328 326 324 322 323 324 322 319 317 316 315 314 313 312 310 312 313 309 306 305 305 308 311 310 309 309 309 308
326 328 329 329 329 329 331 331 331 334 338 339 338 337 336 335 336 338 339 340 341 340 339 341 344 344 343 343 343 342 342 342 341 341 340 340 340 340 341 341 340 340 339 338 337 337 336 335 334 333 332 332 331 330 329 329 329 327 326 323 321 322 322 320 318 316 315 314 313 313 311 309 311 312 309 307 305 303 304 309 309 308 309 309 308
328 329 329 329 330 330 331 332 332 334 336 338 337 337 337 337 338 340 340 340 341 340 339 340 342 343 343 343 343 342 343 342 341 340 340 340 340 340 341 341 340 339 338 338 337 336 335 334 333 332 332 332 330 330 329 329 328 327 326 324 321 320 320 318 317 316 315 313 313 313 312 310 310 310 308 306 304 300 300 305 309 308 309 309 308
329 330 330 329 330 331 331 331 330 330 330 333 337 338 337 339 340 340 339 339 340 340 339 340 341 341 342 343 342 343 343 342 341 340 340 340 340 340 340 340 339 338 338 338 337 336 334 334 332 331 331 331 329 329 329 329 328 326 326 324 322 320 319 317 316 316 314 312 312 314 313 311 309 308 305 304 302 299 298 303 307 308 307 307 306
329 330 330 329 329 331 331 328 326 327 328 329 332 337 338 338 339 339 339 339 339 339 339 340 341 341 342 343 343 342 342 342 341 340 340 340 340 340 340 339 338 338 337 337 338 336 334 333 332 331 331 329 327 326 327 328 327 326 325 324 321 320 318 316 316 315 314 312 313 313 311 310 308 306 302 300 300 299 298 301 305 306 306 306 305
329 329 328 328 329 331 331 329 327 327 327 328 328 331 336 340 339 339 339 339 339 340 340 342 343 343 343 343 342 342 341 341 341 340 340 340 340 340 339 339 339 338 338 338 337 336 335 333 332 331 330 327 324 324 325 325 325 325 325 323 321 319 317 315 315 315 313 312 312 311 309 309 306 302 300 299 299 299 299 299 302 304 304 305 305
329 328 327 327 328 330 331 331 329 327 326 329 329 328 329 332 335 338 341 341 340 341 341 342 343 342 342 342 342 341 341 340 340 340 340 340 340 340 339 340 340 339 338 337 336 335 333 332 332 331 330 325 322 322 323 323 322 323 322 321 319 317 315 314 314 314 313 311 311 310 309 307 303 300 300 300 299 299 300 300 299 300 302 303 304
327 327 328 328 329 328 329 330 331 329 327 328 329 329 328 328 329 331 334 337 339 340 341 342 343 342 342 342 342 341 341 341 341 340 340 340 340 340 340 340 339 339 338 336 335 333 331 331 330 329 327 323 320 319 320 320 320 320 319 317 316 315 313 313 313 313 311 309 309 308 307 305 303 302 302 300 299 300 301 301 300 300 301 302 303
326 326 327 328 328 328 328 329 330 330 329 329 329 329 329 329 330 330 329 329 331 332 334 338 340 340 341 342 342 341 341 341 341 340 340 339 339 339 339 338 337 337 336 333 332 330 329 329 329 326 324 323 319 317 318 320 320 319 316 313 312 312 312 312 312 311 309 307 306 305 305 306 305 304 303 301 301 302 302 301 301 301 301 302 302
324 324 325 326 327 327 327 328 329 330 330 330 330 330 329 328 330 331 330 330 330 329 330 333 335 335 336 339 340 340 341 340 339 339 339 338 338 338 337 336 335 335 334 332 331 329 328 329 329 328 325 323 320 318 320 321 321 320 319 315 313 312 311 311 311 309 308 307 306 305 306 307 306 304 304 304 304 304 303 302 302 302 302 302 302
323 323 323 323 325 326 326 327 327 328 328 328 329 329 329 329 330 330 330 331 332 332 332 333 333 334 337 338 339 339 339 339 338 338 337 336 336 336 336 335 334 333 333 332 331 330 330 331 331 330 328 325 323 323 323 321 320 320 319 317 315 313 311 310 309 308 307 308 308 307 308 308 306 305 305 305 305 305 305 304 303 302 302 303 302
320 321 322 322 322 323 325 326 326 326 326 326 327 327 328 329 329 330 331 331 331 332 333 333 333 334 335 337 337 338 338 337 337 337 336 335 334 333 333 333 333 332 332 332 331 331 331 331 331 331 329 326 324 324 323 321 320 320 318 314 313 312 310 309 308 307 307 309 309 308 308 308 307 306 306 305 305 305 305 305 305 304 303 303 302
Wind_Speed
15 19 21 21 22 24 22 20 22 23 22 25 27 27 27 27 26 27 30 32 30 29 28 27 25 24 22 21 20 18 18 17 17 17 16 16 17 19 20 20 18 18 18 18 17 15 14 14 14 13 14 13 13 14 14 13 12 10 12 14 15 15 15 15 14 14 13 12 11 8 6 5 5 6 6 6 7 7 7 7 7 8 8 8 8
17 19 20 22 22 24 24 22 23 24 25 27 28 29 28 26 26 27 29 32 31 28 28 27 25 25 23 22 20 19 19 18 17 17 17 16 17 19 20 20 19 19 18 18 17 16 14 14 14 14 13 12 12 12 13 11 11 11 11 14 16 17 16 15 16 16 14 13 12 9 5 5 6 6 7 7 8 7 7 8 8 8 9 9 9
20 19 18 21 21 23 24 22 23 25 26 28 29 30 29 26 27 27 28 31 30 27 26 26 24 24 24 22 21 20 19 19 18 18 18 16 18 19 20 20 19 19 18 18 17 16 15 14 14 14 13 12 11 12 12 11 12 11 11 16 18 16 14 17 20 17 14 15 13 7 6 6 6 8 9 8 9 8 8 8 8 9 9 9 9
21 20 18 19 19 21 21 20 23 24 25 28 30 29 28 27 28 28 29 30 29 27 25 24 23 24 22 22 22 19 18 19 17 18 18 17 18 20 20 20 19 19 18 18 17 16 16 14 14 14 14 13 12 13 12 13 15 14 13 16 17 16 14 17 22 17 14 15 10 5 6 5 5 7 10 10 10 9 9 9 9 9 10 10 9
21 21 20 18 15 19 23 23 25 25 25 28 31 29 27 29 29 28 29 29 28 28 27 24 24 24 22 21 21 19 18 18 17 17 19 19 19 20 20 20 20 19 18 18 17 16 16 15 14 14 14 13 14 14 13 14 16 16 15 16 16 16 14 16 19 16 16 17 9 4 6 4 3 7 11 8 10 11 10 11 10 9 10 11 10
21 21 20 18 15 18 21 21 24 25 25 27 29 29 28 30 31 29 29 29 28 29 29 27 26 25 25 24 23 21 18 18 18 18 20 20 20 20 20 20 20 19 18 18 18 17 17 16 16 14 14 14 15 14 13 14 15 15 16 15 14 13 12 14 16 17 18 17 12 5 5 4 1 7 8 5 9 12 11 12 12 11 11 11 11
20 21 21 19 16 16 17 19 22 24 24 27 28 29 29 30 32 31 29 28 28 29 30 28 27 26 25 26 25 24 21 19 19 19 19 20 20 20 20 19 19 19 18 18 18 17 17 17 17 15 14 15 15 16 14 13 14 15 15 14 14 13 12 13 15 19 18 15 13 10 8 7 4 5 5 2 6 9 10 12 13 14 13 12 12
16 17 19 19 17 17 18 22 24 24 21 26 28 29 30 30 32 32 29 27 28 30 31 30 28 26 25 24 24 25 23 20 20 20 19 19 19 19 20 19 19 19 19 18 18 18 17 18 17 15 15 15 16 17 16 14 13 14 14 14 14 13 14 13 13 18 18 14 14 14 11 10 9 8 7 5 3 4 8 11 13 15 14 13 13
18 17 18 18 16 19 21 24 24 23 23 25 27 29 30 30 32 32 29 27 28 30 32 31 29 28 26 24 23 24 23 22 21 19 18 18 19 19 19 19 19 19 19 19 19 19 18 18 17 16 16 15 16 17 16 14 13 12 13 14 13 13 14 13 12 15 16 13 13 14 13 12 11 10 9 8 6 5 4 7 12 14 13 14 14
19 20 19 18 18 19 22 23 24 24 26 24 25 26 28 28 30 32 30 28 30 31 32 32 30 28 27 26 25 25 24 23 21 20 19 19 19 20 19 19 19 19 20 20 20 20 19 18 18 17 16 16 16 15 13 13 12 12 13 14 15 14 14 14 12 13 13 12 12 13 12 12 11 9 9 9 7 7 7 6 11 13 11 13 15
18 21 20 20 22 19 17 18 20 22 24 23 24 25 25 26 28 32 32 30 31 32 32 32 30 28 28 27 26 27 26 25 24 22 21 20 20 21 20 19 19 20 20 20 21 20 19 19 18 17 17 16 17 15 12 14 15 14 15 15 16 15 14 14 14 14 11 11 12 13 12 12 11 9 9 9 8 8 8 6 9 13 14 14 16
18 19 19 20 22 18 14 15 15 15 17 21 24 25 25 27 29 32 32 31 32 32 33 32 29 27 27 27 27 27 27 28 27 25 24 22 21 22 22 20 21 21 20 20 21 21 20 19 18 18 17 17 17 16 15 16 16 15 15 16 17 16 15 14 15 14 12 12 13 14 13 12 11 11 9 9 9 10 9 7 9 10 13 13 14
19 17 16 17 18 15 13 14 13 13 14 21 25 26 26 27 30 31 32 32 33 33 33 31 29 27 27 27 28 28 27 28 28 27 25 23 23 23 23 23 22 23 22 21 21 22 21 21 20 19 18 17 17 17 17 18 17 16 17 16 15 16 16 14 14 14 15 15 13 14 14 13 12 12 10 10 11 11 10 9 10 11 11 8 8
21 18 16 16 15 14 14 15 15 18 20 25 27 25 25 26 28 29 30 31 32 32 31 30 29 28 28 27 28 28 27 27 28 28 27 25 24 25 25 24 24 24 23 22 22 22 21 21 20 18 17 15 16 18 19 17 16 17 17 16 14 15 16 15 14 14 15 16 14 14 14 14 13 12 12 13 12 11 11 10 11 12 10 6 3
19 18 16 17 16 14 14 15 16 20 26 29 27 24 24 24 26 28 29 30 29 29 30 30 30 30 29 27 27 28 27 26 27 28 29 28 26 26 26 25 25 24 24 23 22 22 22 21 18 17 17 15 16 20 21 18 17 17 16 15 13 13 14 16 15 14 15 16 15 15 14 14 15 13 14 15 13 13 12 12 11 10 6 4 5
19 17 16 18 18 14 13 14 15 17 22 27 27 24 24 23 25 28 29 29 29 29 30 31 31 31 29 27 28 29 27 26 26 26 29 29 28 27 26 25 25 24 24 23 23 22 23 22 20 18 18 18 20 22 21 20 20 19 17 15 14 13 14 15 15 14 16 16 16 15 15 15 15 14 14 15 15 13 12 14 15 12 8 5 6
13 14 14 17 18 14 13 16 17 17 21 26 26 23 24 24 25 28 28 28 30 30 29 30 30 29 28 28 28 29 29 28 26 26 28 29 28 27 26 26 26 24 23 23 23 23 23 23 21 19 19 19 22 23 20 20 21 20 19 18 18 17 15 14 15 15 16 17 17 16 16 15 15 15 15 15 15 13 14 17 16 13 10 8 5
12 13 14 15 14 12 14 19 21 22 26 28 25 23 23 24 26 28 28 28 28 29 29 29 28 27 28 29 30 29 29 29 27 27 27 28 29 27 25 25 25 23 23 23 23 23 23 23 22 21 21 20 21 23 21 20 20 21 21 19 18 18 16 14 15 15 15 15 16 16 16 16 16 15 15 15 15 15 15 17 15 12 12 11 8
15 15 15 15 14 12 15 20 24 28 30 28 24 24 23 24 25 26 27 28 29 30 30 28 26 26 29 31 32 32 30 29 28 27 27 28 30 29 26 25 24 24 24 23 23 24 24 24 24 23 22 21 21 22 22 21 21 20 20 18 16 16 16 14 14 14 14 14 14 15 16 16 16 15 15 15 16 16 16 16 13 12 13 12 11
16 16 17 17 15 14 17 20 23 27 28 24 22 23 24 24 24 25 25 27 28 28 28 27 27 28 31 32 33 33 32 30 28 27 29 29 30 30 29 26 25 26 26 25 25 25 25 24 24 23 22 22 23 23 23 23 22 20 19 17 16 16 16 15 15 15 15 15 15 16 16 16 16 16 16 16 16 16 16 14 13 13 13 12 12
16 16 17 17 15 16 19 20 20 22 23 22 22 22 23 24 24 24 24 25 26 27 27 27 28 29 32 33 33 32 32 30 28 27 29 29 29 31 30 27 27 28 28 27 26 25 26 25 24 23 22 23 24 24 24 24 22 20 19 18 17 17 17 17 17 17 17 16 17 18 18 18 18 18 17 16 17 16 15 15 14 14 14 13 12
14 15 16 16 16 16 18 19 19 19 21 22 23 22 23 23 24 24 25 25 27 28 29 29 29 30 33 34 32 31 32 30 28 29 30 29 29 31 29 28 29 29 28 29 27 26 26 26 24 23 23 24 25 25 25 24 22 21 20 20 18 18 18 18 18 18 18 18 18 19 19 19 19 18 17 16 16 16 15 15 15 14 13 13 13
12 13 14 15 16 16 18 19 19 19 20 21 23 23 22 21 23 24 26 28 28 29 31 31 30 31 33 33 31 30 32 32 30 30 31 31 30 30 30 29 29 29 29 29 28 27 27 27 25 24 23 24 24 24 23 23 23 22 21 20 19 19 19 19 19 19 19 18 18 19 19 19 19 19 18 16 15 15 15 15 15 15 13 13 13
10 10 9 9 12 13 15 16 17 18 19 19 22 24 22 20 21 23 27 30 30 30 31 31 30 30 31 31 30 30 31 32 32 31 33 33 30 30 31 31 29 29 30 30 28 27 28 28 26 24 24 23 23 23 22 23 23 22 21 21 20 20 20 20 20 20 19 19 19 20 20 19 19 18 18 17 15 14 14 14 14 14 14 13 12
11 11 10 10 11 12 12 12 13 17 19 19 20 22 23 23 23 23 26 28 30 30 30 30 30 30 30 29 30 31 31 32 33 32 33 33 31 30 31 31 30 29 29 30 30 29 29 29 27 25 25 24 24 24 24 23 23 22 22 22 21 21 21 20 20 20 20 20 20 20 20 18 18 18 17 17 15 15 14 13 13 13 13 13 12
12 13 12 13 12 13 14 12 13 16 18 19 19 22 25 25 24 24 25 27 29 30 31 31 30 30 30 30 31 32 31 33 35 33 30 30 30 30 30 31 31 30 29 30 31 31 30 30 28 26 26 25 25 26 25 24 24 23 22 22 21 21 21 20 20 20 20 20 19 19 19 18 19 18 18 17 16 16 15 14 14 14 13 13 12
11 12 14 13 13 14 15 14 15 17 19 20 19 22 25 24 22 22 23 26 29 31 31 31 30 30 30 30 32 32 32 32 34 32 29 29 31 31 30 32 32 30 29 30 31 31 31 30 28 27 27 26 26 27 26 25 25 24 23 22 22 21 20 20 20 20 20 19 19 18 19 19 19 18 18 17 17 16 16 15 15 14 13 13 13
11 12 14 14 13 14 14 14 15 18 21 22 21 21 22 24 24 24 24 26 28 29 30 29 29 29 30 31 32 32 33 32 32 32 30 29 31 31 31 31 31 30 30 30 30 31 31 29 28 27 27 27 28 27 26 25 25 24 22 22 22 21 20 19 20 19 19 18 18 18 18 19 19 18 18 17 17 17 16 15 15 14 13 13 13
12 12 13 14 13 13 13 14 15 18 21 23 24 23 22 24 27 25 23 26 28 28 29 29 30 30 30 31 32 32 32 32 31 32 32 30 30 31 31 30 30 31 30 29 30 30 30 29 28 28 27 27 28 28 27 26 25 23 22 23 23 21 20 20 19 18 18 17 17 18 18 18 18 18 18 18 17 17 17 16 16 15 14 14 14
12 13 13 14 13 13 14 14 14 17 20 23 25 26 25 24 27 27 25 27 30 29 29 30 30 31 31 31 31 30 30 31 32 32 32 31 31 31 31 31 31 31 29 28 29 30 30 29 29 29 28 27 28 28 28 29 29 26 24 23 22 21 20 21 19 17 17 17 17 17 16 17 19 19 19 19 19 19 18 17 16 16 16 15 14
13 13 13 13 13 13 13 13 13 16 20 23 25 26 27 25 26 31 31 29 29 29 28 30 30 31 31 30 29 29 29 30 31 31 30 31 31 31 31 31 31 31 29 27 29 30 30 30 29 29 29 28 27 27 28 30 31 29 26 23 21 20 21 21 19 17 17 17 18 17 16 18 21 21 21 22 21 21 20 18 18 18 18 17 15
15 15 13 13 14 13 12 12 12 15 19 23 24 25 27 27 27 30 33 31 31 31 29 29 30 30 30 29 28 29 29 28 30 31 30 30 31 30 28 29 31 30 28 26 28 30 30 29 29 30 31 29 27 28 31 32 32 32 28 24 21 20 21 21 19 18 18 18 18 18 17 18 21 22 22 23 23 23 21 19 19 20 20 18 16
15 16 14 14 14 12 10 10 11 14 18 23 26 27 27 28 29 29 30 32 32 33 30 29 30 29 28 28 29 28 28 28 30 31 30 30 31 30 29 30 31 29 27 26 28 29 29 29 28 29 31 30 28 30 32 33 34 35 32 26 22 20 20 20 18 18 19 18 19 20 18 17 20 22 22 22 23 24 22 20 20 20 20 19 17
14 15 14 14 15 13 11 11 13 15 18 21 25 27 28 29 29 29 30 31 32 32 30 29 29 29 28 28 28 27 27 28 29 31 30 30 31 30 31 31 30 28 28 27 28 28 28 29 27 26 28 29 29 32 34 35 35 37 36 31 24 20 20 20 18 18 19 19 19 20 19 18 20 23 23 20 21 23 22 21 20 18 18 19 19
12 13 12 13 16 17 14 13 14 16 17 20 23 26 28 29 30 31 31 30 31 33 32 29 28 29 28 28 28 28 27 28 30 31 30 31 31 31 32 32 30 31 30 28 28 27 26 27 28 27 28 29 31 35 36 36 35 36 37 33 26 22 20 19 18 18 18 19 19 20 19 18 20 23 24 22 21 21 21 20 17 14 13 16 19
13 12 10 11 16 21 19 15 15 16 18 20 22 24 27 29 30 32 32 31 33 35 34 29 28 28 28 29 29 28 28 29 31 31 30 30 31 32 33 33 31 32 30 29 30 30 28 27 27 29 31 29 31 35 36 36 35 35 35 32 26 23 21 19 19 19 18 19 20 20 19 19 19 22 25 25 22 20 19 18 16 14 12 12 15
14 14 14 16 20 24 21 16 15 17 19 21 22 24 25 27 29 31 32 32 33 34 31 28 28 29 29 30 29 29 28 29 31 32 32 32 34 35 36 34 32 31 30 31 32 31 32 32 29 31 33 29 30 34 36 35 35 34 35 31 25 23 23 21 20 19 19 19 20 20 20 19 18 21 25 27 24 20 19 18 16 15 14 12 12
13 16 17 17 19 21 19 16 17 19 21 23 23 24 25 26 29 30 31 31 30 30 29 28 28 29 30 30 29 29 29 30 33 35 34 34 36 39 39 36 33 30 31 34 34 30 32 34 31 32 34 29 28 34 36 35 35 34 35 32 25 22 24 21 20 20 19 18 20 21 21 19 18 21 25 28 27 21 18 17 17 15 14 14 13
14 15 15 15 18 20 19 18 19 20 22 24 24 25 25 26 28 30 30 29 29 30 29 28 29 30 30 30 30 30 30 32 35 34 32 35 37 36 34 33 31 29 28 31 33 29 28 29 28 31 33 28 27 33 36 35 35 35 36 34 28 24 24 22 21 20 18 17 18 21 23 20 18 20 25 28 29 24 17 16 17 15 15 15 14
13 14 14 15 18 19 18 18 19 18 20 24 25 26 25 26 28 29 29 28 29 31 30 29 30 30 29 30 30 30 31 32 33 32 31 35 36 32 30 31 31 29 28 29 30 29 27 26 26 29 31 28 28 34 38 37 36 37 38 36 30 26 26 23 20 19 18 18 17 19 24 24 19 19 24 27 30 26 17 13 15 15 14 15 15
12 13 14 15 17 17 16 16 16 17 22 25 26 25 24 27 27 26 27 30 30 31 31 30 29 29 29 29 29 30 30 29 31 32 32 34 33 29 30 32 29 27 27 26 26 25 24 24 24 26 28 27 28 33 39 38 37 38 40 37 30 27 26 22 20 19 17 18 18 17 23 27 22 19 22 24 28 28 21 14 13 15 15 15 14
12 11 12 12 13 15 16 13 12 16 22 24 26 27 25 25 25 25 27 30 30 31 31 31 29 27 28 28 28 28 28 27 28 31 31 31 31 29 31 31 27 24 24 23 22 22 22 22 22 24 27 27 27 31 37 39 38 39 41 39 33 29 26 21 20 19 17 18 19 17 21 28 26 20 19 21 23 28 25 18 14 15 16 15 14
11 12 12 11 11 14 13 8 8 14 21 21 20 26 26 24 23 26 29 30 29 29 30 30 29 27 26 27 26 25 26 27 28 29 30 29 29 28 29 28 26 25 24 22 22 23 22 22 22 24 26 25 25 29 35 38 40 40 41 42 37 32 28 23 20 19 18 18 18 17 20 27 27 22 18 18 19 24 27 24 18 15 16 17 15
12 13 15 15 12 11 6 4 5 10 17 22 20 21 24 25 26 27 28 28 29 30 30 27 26 25 24 25 24 23 23 24 26 28 27 27 27 27 26 25 26 27 25 24 24 24 22 21 21 23 23 21 22 28 32 36 40 41 42 44 40 33 30 28 22 19 18 17 17 19 21 25 28 26 24 22 21 23 28 29 22 17 16 17 16
12 14 18 18 13 8 4 9 3 7 15 21 19 17 13 14 21 26 27 27 27 28 27 25 23 23 23 23 23 22 22 22 24 26 26 26 26 26 25 25 26 26 25 24 23 21 21 21 21 22 22 19 20 27 30 31 37 41 42 44 42 35 31 30 23 17 18 19 19 20 21 22 25 27 25 23 23 25 27 28 26 21 17 16 15
10 11 13 13 11 8 9 12 8 8 17 20 14 10 13 13 10 12 17 23 26 25 25 25 24 24 25 24 23 23 23 23 23 24 24 25 26 26 26 25 24 24 23 21 19 19 19 19 18 18 19 17 18 25 30 30 34 40 43 45 43 35 29 28 22 18 19 21 20 21 21 21 21 21 22 24 25 26 26 26 25 23 19 15 15
10 11 10 8 9 10 11 12 12 13 18 21 18 12 9 13 14 10 7 10 14 17 19 21 24 24 25 25 24 23 23 23 23 24 23 22 22 24 24 22 20 19 18 17 19 21 19 17 16 16 17 16 17 23 30 32 35 40 44 46 44 35 28 26 23 20 21 21 20 21 20 17 17 18 23 26 25 25 26 26 25 24 20 17 16
13 15 15 13 13 12 11 11 12 15 18 18 19 20 17 11 8 4 4 2 3 5 8 11 15 18 19 21 22 22 22 21 20 21 21 19 18 19 20 19 18 17 15 13 17 19 19 19 18 17 17 16 15 21 31 37 40 42 44 46 45 38 32 29 25 23 23 22 21 20 18 16 18 21 23 23 21 21 24 26 25 22 19 18 17
14 17 20 19 16 17 16 14 14 17 20 19 20 23 24 23 20 12 7 7 6 8 10 9 10 13 14 14 16 18 18 16 14 14 16 18 19 19 17 15 17 19 18 17 18 19 19 19 19 19 21 19 17 23 35 40 40 42 45 49 49 43 37 33 29 27 25 21 19 20 18 17 20 21 20 19 18 17 19 22 23 20 18 18 19
18 19 22 23 22 21 20 19 20 21 23 24 24 25 25 24 23 20 15 10 7 6 7 6 7 7 7 8 10 12 12 11 11 12 12 13 16 17 16 15 17 20 23 24 24 24 22 21 21 21 22 23 24 31 37 37 36 39 43 48 50 47 41 34 29 27 25 20 19 20 19 18 18 18 18 18 18 18 18 19 21 21 20 20 19
22 21 22 23 24 23 21 20 21 23 24 25 25 24 24 24 22 20 19 17 15 12 9 8 9 8 6 5 4 4 6 7 9 10 11 12 13 15 18 18 18 20 24 26 27 25 23 23 24 21 21 24 26 30 31 33 35 38 41 46 47 46 43 38 33 31 27 22 21 21 20 19 19 18 19 19 19 19 20 19 19 21 21 20 20
Wind_Direction
200 205 198 198 197 195 201 208 194 175 169 167 170 177 174 173 171 166 163 164 170 176 179 180 179 180 182 185 186 185 190 192 198 203 199 199 197 190 186 186 189 191 196 201 206 210 208 202 199 200 204 209 213 218 222 221 215 191 161 168 173 166 167 173 169 157 157 163 165 163 159 180 178 179 197 187 180 179 173 177 171 170 173 171 178
201 205 197 199 191 184 190 203 199 178 171 171 174 183 178 172 172 170 168 167 172 177 181 183 181 178 179 182 184 183 189 191 195 202 200 199 198 193 188 188 190 192 196 201 204 207 205 203 204 204 206 210 217 221 223 222 211 191 172 176 173 167 173 180 171 164 168 168 163 162 171 193 189 197 213 201 189 185 180 184 181 181 180 177 181
205 200 195 197 182 175 183 199 202 183 176 177 180 184 177 172 175 175 173 171 174 178 181 184 182 178 176 177 182 182 189 195 196 201 201 199 198 195 190 189 191 193 196 200 203 205 203 203 204 206 207 210 217 220 221 219 209 198 184 179 177 175 178 179 175 176 179 168 161 171 182 187 192 204 216 213 199 190 190 192 189 193 190 181 184
213 201 191 192 174 169 179 199 209 191 179 182 184 182 176 176 178 178 179 174 174 178 179 183 181 177 174 173 179 183 189 196 198 200 200 199 198 196 193 191 192 194 196 199 202 203 203 204 205 206 207 210 215 219 220 215 209 207 193 182 183 183 180 180 181 185 180 167 169 187 178 194 213 191 195 205 202 197 200 202 198 200 197 187 190
221 208 193 194 178 168 176 194 209 197 182 184 184 179 175 179 180 179 181 176 174 176 177 181 179 175 172 169 178 188 191 190 195 201 200 200 199 196 194 192 194 197 198 200 202 203 204 204 205 206 206 209 214 219 223 218 213 209 199 192 192 189 182 179 183 188 184 177 184 179 160 214 255 165 173 191 199 202 206 208 206 204 203 196 201
221 217 204 198 179 169 177 190 210 204 186 183 183 179 177 180 180 179 180 178 177 177 177 180 179 175 172 169 174 186 189 184 191 203 201 200 199 195 195 193 194 198 199 200 202 203 204 204 204 203 205 210 214 218 223 222 217 211 205 198 193 193 183 175 182 189 192 193 204 212 186 227 249 159 170 174 190 204 209 209 208 206 208 205 208
220 219 213 205 180 171 178 186 210 213 191 181 182 182 180 179 180 180 179 178 177 177 178 178 178 178 177 174 172 179 185 184 191 201 200 200 198 194 193 194 196 199 201 203 203 204 205 205 204 202 206 212 214 215 218 222 220 212 208 201 194 197 193 185 183 184 194 208 215 225 226 233 234 193 201 176 178 203 208 211 212 205 207 210 213
229 219 216 213 186 175 183 186 204 218 199 182 181 182 179 176 178 180 179 178 178 179 180 180 179 179 180 178 173 175 181 184 190 196 197 198 196 191 191 194 196 200 203 205 205 205 205 204 204 203 206 211 214 216 215 218 221 213 207 204 201 200 196 195 187 181 191 205 208 217 228 232 231 226 240 254 241 225 202 208 215 207 206 210 213
237 232 224 218 194 178 184 187 194 212 211 190 180 180 178 174 175 179 179 180 180 181 182 183 182 179 180 180 175 173 177 181 189 194 194 194 192 189 190 192 196 202 206 208 208 206 206 205 204 204 208 211 214 219 220 218 220 216 208 202 201 199 195 199 196 187 192 198 201 211 221 228 230 228 235 247 261 267 228 202 201 201 206 211 212
230 235 230 225 215 191 181 184 187 202 215 200 181 179 177 173 174 177 179 182 183 183 185 187 185 181 182 183 178 174 173 178 185 187 187 190 191 190 192 193 196 203 208 209 210 207 206 206 205 206 209 211 214 218 225 224 220 218 212 204 202 200 197 199 196 189 194 201 205 210 218 224 227 225 225 231 241 252 255 224 199 196 199 208 208
220 228 228 227 226 202 174 182 186 194 210 204 188 183 178 175 176 178 181 183 182 184 189 191 187 183 185 185 181 177 173 175 180 183 185 190 195 194 195 197 198 203 207 208 210 209 206 206 206 208 208 211 214 213 221 226 218 215 214 208 205 200 195 195 195 193 197 206 209 212 219 223 223 223 222 224 227 235 244 241 225 206 197 206 204
220 222 222 223 223 209 186 187 184 183 201 210 199 186 181 180 179 180 182 183 182 185 191 192 189 189 190 190 187 181 176 175 177 182 186 191 196 196 196 199 202 203 205 207 209 208 206 204 204 208 208 210 213 211 218 225 217 212 213 208 203 199 196 196 198 200 201 205 210 217 225 225 224 226 223 221 223 233 239 246 256 229 209 215 194
223 221 219 221 216 205 197 191 174 165 192 221 212 189 183 185 181 181 181 181 181 185 191 192 192 195 196 195 194 187 179 177 178 181 186 191 194 196 197 199 202 203 204 206 208 206 205 204 204 206 208 207 208 209 218 222 217 215 213 205 198 197 197 198 200 202 202 207 214 220 226 226 224 224 223 224 223 232 241 244 257 258 254 254 164
223 220 218 225 213 195 197 193 174 165 185 219 218 190 183 186 182 183 185 184 183 185 191 194 195 199 201 199 199 194 185 180 180 180 183 190 193 195 198 201 201 202 204 205 206 206 204 204 205 206 206 204 207 211 215 218 219 220 212 200 197 199 200 201 202 203 206 212 218 222 227 227 226 224 222 226 225 226 234 239 252 264 275 289 160
220 216 213 226 221 196 190 190 177 170 182 206 212 189 181 183 180 183 188 188 186 185 190 196 198 201 202 201 201 199 193 186 184 181 182 188 193 194 197 201 202 202 204 205 205 205 203 202 203 204 202 201 209 212 211 212 214 216 209 198 195 196 198 202 204 208 212 216 219 223 229 228 226 225 222 226 227 225 229 235 249 264 260 226 218
216 212 211 222 224 204 187 184 181 178 183 201 206 189 180 182 180 183 186 187 187 187 190 195 199 200 199 201 204 204 200 194 190 185 183 186 192 196 197 200 202 203 204 204 203 203 203 201 200 203 203 203 209 211 208 209 211 211 206 199 195 193 197 202 204 209 215 220 223 225 230 231 226 224 223 225 228 229 230 231 239 252 252 227 223
227 219 221 224 220 207 197 195 189 187 195 204 203 188 182 183 184 187 188 188 189 189 189 193 198 200 198 200 206 207 204 201 198 190 184 185 190 197 198 200 203 203 201 200 200 201 202 201 200 201 201 205 212 212 207 208 211 211 207 205 204 201 201 204 206 208 214 221 224 224 227 230 224 221 223 224 228 232 232 237 244 251 250 248 240
240 232 232 232 222 204 204 206 198 200 209 207 197 186 185 187 187 189 190 190 191 189 189 192 195 200 202 202 205 207 205 204 203 196 188 186 189 193 197 199 201 199 196 196 196 197 199 200 199 199 201 205 212 212 208 206 208 210 209 209 209 205 202 205 208 210 215 218 222 224 225 226 223 220 220 222 226 229 230 240 252 248 239 240 247
231 231 231 232 224 207 207 209 203 206 214 209 194 185 187 189 190 191 192 191 191 191 193 194 194 201 208 207 205 206 206 205 205 200 194 193 193 194 195 196 196 195 194 193 194 196 198 198 198 199 202 205 207 207 205 205 206 207 208 209 210 207 204 206 208 211 217 218 221 225 223 222 222 218 217 220 223 227 231 238 240 235 235 234 237
223 227 229 227 222 213 215 215 209 209 212 209 198 191 188 188 189 191 192 191 192 193 192 193 196 204 209 208 206 206 206 205 204 202 200 201 200 198 197 196 195 196 195 194 195 197 197 197 196 197 200 204 205 205 203 204 205 205 206 208 208 208 207 209 210 211 217 220 221 222 221 219 218 215 215 218 222 226 230 231 228 225 230 229 227
218 222 227 224 221 220 221 221 219 215 212 208 203 197 191 189 190 190 189 189 191 191 190 192 198 205 209 209 206 204 204 203 202 203 203 203 202 201 200 198 198 199 197 196 194 194 197 198 195 195 198 202 204 203 203 205 205 204 205 206 207 207 208 212 214 210 212 218 220 219 217 214 215 216 217 219 221 223 219 218 222 222 221 221 217
217 220 225 223 221 223 223 221 220 219 216 209 205 203 198 193 191 192 189 189 192 192 191 194 198 204 209 208 203 202 203 202 201 203 203 202 200 201 201 200 200 201 200 198 194 193 198 199 196 195 197 201 204 204 204 204 204 204 206 206 207 209 210 214 218 214 210 214 219 222 220 215 217 220 219 217 213 212 211 210 215 217 215 216 211
221 221 223 223 221 220 220 221 219 219 218 211 205 205 203 197 193 192 191 192 195 196 194 195 197 202 207 206 201 201 202 202 202 203 204 203 198 198 200 201 200 201 201 199 195 194 199 201 198 196 197 202 204 204 203 203 204 206 206 205 207 210 212 214 218 219 218 218 221 223 222 218 217 216 212 211 208 207 209 209 210 212 213 214 210
237 235 228 227 230 225 220 219 217 216 216 214 208 201 199 199 197 197 195 192 193 195 194 195 196 199 202 201 199 201 202 202 203 203 204 205 198 196 200 201 200 201 202 200 196 195 199 202 199 196 198 200 200 199 201 203 206 207 207 207 209 212 213 214 219 221 221 223 222 219 217 212 207 206 204 206 207 204 206 209 209 209 209 212 210
238 237 230 224 232 236 229 224 222 218 213 214 211 202 198 200 200 202 203 197 191 191 193 194 194 194 195 197 199 201 203 204 205 204 205 204 198 197 200 201 200 202 201 200 199 198 200 202 198 196 197 197 198 199 201 203 206 208 209 209 209 212 215 216 220 221 219 221 219 214 212 204 196 198 199 201 203 201 202 207 207 204 203 205 205
241 235 231 223 222 229 231 228 229 227 221 216 210 203 202 202 196 198 205 203 193 189 191 192 192 192 191 194 198 202 205 206 205 205 203 200 198 200 201 201 202 202 201 201 203 202 202 203 200 195 196 197 199 202 203 204 207 209 209 208 206 211 217 216 217 220 218 217 214 210 208 201 196 198 198 198 201 198 199 203 202 201 201 199 196
253 240 232 227 221 224 230 230 228 229 228 226 219 208 202 197 193 195 204 209 200 190 189 190 190 191 190 192 198 202 203 205 204 204 201 198 199 202 203 203 203 203 202 202 205 204 203 204 202 195 196 200 202 202 203 204 207 208 208 208 208 211 215 216 217 218 215 212 210 208 206 202 199 199 198 198 198 194 197 200 198 199 200 192 188
264 250 233 228 227 226 229 231 227 225 225 227 229 221 203 192 195 199 203 211 207 192 187 189 189 190 191 193 197 200 202 203 203 203 202 197 198 202 205 204 204 205 204 203 204 205 202 203 204 197 195 200 203 203 201 202 207 207 205 208 211 212 213 216 217 215 211 208 207 207 206 203 202 201 199 197 195 190 192 195 193 195 192 183 182
270 270 247 231 229 230 231 230 228 226 223 223 226 228 216 197 195 199 202 211 213 200 189 190 191 191 192 192 193 195 199 201 201 202 202 198 196 200 205 204 203 206 207 204 205 206 203 203 205 201 195 198 203 204 202 201 205 204 203 208 212 211 213 215 214 210 207 206 205 206 207 205 202 202 200 196 193 190 191 192 190 188 184 180 183
273 282 267 241 230 232 233 233 232 228 225 224 222 224 225 209 192 191 200 211 215 207 192 188 190 189 190 190 189 191 195 198 199 201 201 199 195 196 203 205 203 207 208 203 204 207 204 203 206 204 198 197 201 203 202 202 203 203 203 207 209 209 212 214 210 205 203 203 204 204 205 204 202 201 199 195 193 192 192 192 188 183 181 182 189
277 277 272 255 239 237 237 239 243 237 229 228 225 222 225 219 197 189 196 205 215 213 198 189 190 188 189 189 187 188 192 194 197 198 197 199 196 194 200 204 203 207 209 202 202 207 206 204 207 207 202 199 199 200 202 201 201 202 202 203 204 207 212 213 207 202 200 201 201 200 201 202 200 200 199 196 195 194 194 191 185 182 184 187 192
278 273 271 261 248 242 242 247 254 250 238 232 229 224 223 223 213 200 194 195 209 217 204 191 191 190 189 188 185 187 189 190 194 196 195 198 197 193 197 203 203 206 207 200 202 208 207 204 207 209 206 203 200 200 203 201 198 199 198 199 203 207 211 211 206 201 200 199 198 197 196 196 197 198 198 198 198 198 196 191 184 184 188 192 192
278 275 279 277 263 252 253 258 262 260 250 238 232 229 225 223 221 214 199 192 204 216 206 193 193 192 188 187 185 185 187 188 193 196 196 198 197 193 197 202 201 203 205 202 203 208 207 203 207 210 209 207 204 203 202 199 198 199 196 195 202 208 211 212 207 202 201 198 196 195 193 191 194 196 195 196 199 200 200 197 193 192 194 196 194
277 275 284 287 278 270 270 274 271 267 264 252 239 233 230 226 222 218 208 199 204 215 209 195 193 192 188 187 186 185 186 188 193 196 195 197 196 193 198 202 199 200 206 204 202 207 207 203 203 207 207 207 206 203 200 198 199 199 196 194 199 207 213 216 212 205 202 200 197 195 194 191 190 192 191 190 192 197 199 199 198 197 199 200 199
278 280 287 290 287 281 274 273 274 269 266 259 245 234 231 229 223 218 214 204 204 215 212 197 191 191 187 186 186 185 185 187 192 195 195 196 195 194 199 201 198 201 204 201 199 205 207 202 200 202 203 205 205 201 199 199 199 198 197 195 199 208 214 217 217 210 204 203 200 197 197 193 188 188 190 188 185 185 190 192 192 193 198 204 206
277 277 275 272 273 273 270 271 274 269 260 253 244 235 231 228 223 219 214 204 202 211 210 196 188 188 185 185 186 185 185 187 190 192 193 195 195 195 197 198 198 202 202 198 200 205 205 202 200 200 203 205 203 199 198 199 198 197 198 196 198 207 213 215 218 213 205 204 202 198 198 196 191 189 190 189 184 180 180 182 185 189 193 201 209
277 272 261 250 253 262 268 272 271 266 259 251 241 234 230 226 222 219 214 207 204 206 203 193 187 186 184 184 184 183 184 187 189 191 192 192 191 193 195 196 198 201 197 195 200 203 204 204 202 201 203 204 200 198 198 198 195 195 196 193 192 203 211 215 218 213 206 204 202 199 199 197 194 192 191 188 185 180 178 181 184 188 192 195 201
276 270 265 260 262 269 273 274 271 264 261 256 242 230 228 225 220 217 213 208 204 202 198 191 187 184 183 183 181 181 184 188 191 194 195 192 191 194 196 198 200 199 195 196 201 204 205 207 206 204 205 204 199 197 197 196 194 195 195 190 187 200 211 215 217 213 207 204 202 201 199 197 196 196 193 189 184 179 179 183 185 186 192 196 196
271 269 274 280 283 283 277 273 269 260 259 259 244 228 226 224 217 214 211 206 202 200 196 191 187 184 183 182 181 182 185 190 195 197 194 190 190 194 198 199 201 200 196 198 203 205 205 206 205 205 206 206 201 197 196 196 195 196 196 190 188 200 211 214 214 210 204 202 203 201 197 198 202 200 194 190 186 181 179 186 188 188 193 199 197
277 282 292 293 289 283 274 269 266 260 265 263 242 225 225 222 214 211 208 204 201 198 195 194 189 183 183 183 182 184 188 192 194 193 188 186 190 195 197 198 200 200 198 198 201 203 204 203 202 204 207 208 203 197 196 198 197 196 195 191 188 197 209 211 208 204 200 201 203 199 196 200 204 198 192 193 191 186 181 185 191 195 198 201 199
287 295 301 297 292 286 278 274 272 274 279 266 238 222 223 219 211 209 207 202 198 195 195 198 192 183 182 184 184 188 190 188 188 189 187 188 193 197 197 197 197 196 197 199 198 198 201 200 199 204 208 210 208 201 197 197 198 196 194 190 186 192 203 205 201 200 199 200 201 196 195 198 199 193 189 193 196 193 188 187 197 205 205 201 198
289 301 306 305 303 293 284 284 291 299 294 269 235 219 218 213 207 208 206 201 197 194 194 195 190 184 183 184 186 189 188 182 182 186 188 191 196 199 198 198 196 192 195 201 196 191 196 198 198 206 210 211 212 207 201 198 199 197 195 193 189 191 195 197 197 200 201 200 200 197 194 196 196 191 187 190 197 198 195 194 204 212 209 201 196
310 318 320 324 314 292 287 308 337 331 323 304 259 229 216 208 205 203 199 197 195 193 192 192 188 184 183 184 186 187 183 181 184 187 190 193 195 197 195 193 191 191 197 203 198 192 194 196 197 205 209 208 208 209 206 203 201 199 196 195 193 192 194 195 199 202 201 199 197 192 190 193 192 188 188 195 202 203 198 198 204 212 211 203 197
330 327 329 333 313 284 294 21 360 334 344 341 310 259 224 207 202 198 194 193 192 190 190 187 182 180 180 179 180 181 180 182 187 189 191 191 191 192 191 188 189 193 198 205 202 194 192 195 197 201 203 201 202 205 206 206 204 200 197 196 194 191 193 196 200 204 201 195 191 187 185 190 193 195 200 205 208 205 200 200 203 208 209 204 200
340 342 341 337 318 301 48 74 48 343 9 7 339 303 271 225 204 195 190 189 187 185 183 177 171 173 175 173 174 177 181 186 188 187 188 189 189 192 193 192 192 196 201 206 202 191 188 195 199 198 196 195 198 201 203 205 205 202 198 197 194 191 191 195 197 197 193 189 187 185 183 187 195 200 201 203 205 204 201 202 206 209 209 206 205
352 355 340 333 332 348 44 70 73 41 34 32 20 346 324 304 263 215 192 186 182 178 176 172 169 171 173 175 178 180 184 190 191 189 191 194 194 195 198 199 198 198 200 199 191 183 187 197 201 199 194 190 191 198 201 202 203 203 200 196 193 191 191 192 189 182 180 180 181 183 185 189 195 196 196 199 203 202 199 201 208 213 213 211 211
9 4 345 355 19 22 32 47 56 59 54 50 51 42 349 300 283 272 236 193 178 174 174 171 170 171 174 177 178 179 183 188 191 192 194 198 199 200 201 202 200 197 195 187 178 179 189 199 201 195 192 189 186 192 198 199 200 201 199 195 192 191 188 185 182 180 179 179 179 183 190 198 201 197 198 201 203 202 201 204 209 213 215 216 218
17 12 10 22 35 36 32 30 37 52 59 59 56 48 35 9 337 291 223 173 123 162 189 183 167 164 172 176 173 174 180 183 187 190 190 190 194 196 197 200 200 196 188 176 170 175 187 198 196 190 194 197 186 187 198 203 201 199 196 192 191 191 188 183 183 186 184 183 185 186 188 195 197 195 197 199 200 200 204 208 210 211 215 217 220
23 23 24 23 27 35 35 28 29 40 46 48 46 43 41 33 26 38 99 125 126 157 186 193 166 157 167 170 164 169 175 171 168 175 181 187 193 195 193 197 202 201 197 189 181 180 189 199 201 199 199 197 194 202 211 211 207 203 198 193 191 192 190 187 188 187 182 178 181 182 180 183 186 188 191 194 195 195 199 205 207 209 213 215 216
23 29 31 25 23 31 34 29 28 32 36 38 35 34 36 34 27 33 51 58 61 103 140 148 138 141 155 153 150 161 167 158 156 165 172 180 190 194 194 197 202 206 207 205 199 196 202 212 217 214 202 197 209 221 220 214 209 207 202 196 193 193 190 188 186 183 177 172 173 179 181 182 183 185 189 193 195 195 197 201 204 206 209 212 212
21 27 32 26 21 24 29 31 31 31 33 34 32 29 32 33 29 29 35 38 34 34 43 58 61 55 52 66 100 149 162 164 174 179 174 171 178 191 200 204 207 208 210 212 213 214 218 220 221 218 207 206 220 230 224 214 210 208 202 197 195 192 191 189 185 182 181 179 177 180 183 185 187 189 191 192 195 198 200 202 201 202 206 210 211